Regional Weather Roundup
Issued by NWS

Home | Current Version | Previous Version | Graphics & Text | Print | Product List | Glossary Off
Versions: 1 2 3 4 5 6 7 8 9 10 11 12 13 14 15 16 17 18 19 20 21 22 23 24 25 26 27

000
ASUS43 KDMX 242207
RWRIA

WEATHER ROUNDUP FOR IOWA
NATIONAL WEATHER SERVICE DES MOINES IA
500 PM CDT FRI OCT 24 2014

NOTE: "FAIR" INDICATES FEW OR NO CLOUDS BELOW 12,000 FEET WITH NO
SIGNIFICANT WEATHER AND/OR OBSTRUCTIONS TO VISIBILITY.

* - THESE STATIONS ARE NOT NWS STATIONS...THUS NOT UNDER NWS
QUALITY CONTROL.  THEY ALSO DO NOT REPORT WEATHER SUCH
AS PRECIPITATION OR FOG.

IAZ001>003-012>014-020>022-031>034-043>046-242300-
   NORTHWEST IOWA

CITY           SKY/WX    TMP DP  RH WIND       PRES   REMARKS
CARROLL *      SUNNY     73  54  49 W8        29.89R
CHEROKEE *     SUNNY     72  50  46 W6        29.89S
DENISON *      SUNNY     73  54  49 W7        29.88S
LE MARS *      SUNNY     75  43  31 NW5       29.90R
ORANGE CITY *  SUNNY     73  45  35 NW6       29.91R
SHELDON *      SUNNY     75  43  31 NW9       29.89R
SIOUX CITY     MOSUNNY   77  46  33 N6        29.90R
SPENCER        SUNNY     74  46  36 NW9       29.89R
STORM LAKE *   SUNNY     72  52  49 NW10      29.91R
$$

IAZ055>058-069>071-079>083-090>094-242300-
   SOUTHWEST IOWA

CITY           SKY/WX    TMP DP  RH WIND       PRES   REMARKS
AUDUBON *      SUNNY     73  55  53 SW8       29.91R
CLARINDA *     SUNNY     75  63  64 W8        29.92R
COUNCIL BLFS * SUNNY     73  61  64 SW7       29.90R
CRESTON *      MOSUNNY   72  63  73 SW10      29.92R
HARLAN  *      SUNNY     72  59  64 SW8       29.93S
LAMONI         PTSUNNY   69  62  78 SW9       29.92R
RED OAK *      SUNNY     73  61  64 SW8       29.91R
SHENANDOAH *   SUNNY     73  61  64 NW6       29.91R
$$

IAZ047>049-059>061-072>074-084-242300-
   CENTRAL IOWA

CITY           SKY/WX    TMP DP  RH WIND       PRES   REMARKS
AMES           PTSUNNY   70  60  70 SW7       29.88S
ANKENY *       MOSUNNY   66  63  88 SW8       29.89R
CHARITON *     CLOUDY    64  61  88 SW7       29.92F FOG
DES MOINES     CLOUDY    67  61  81 SW8       29.89S
GRINNELL*      CLOUDY    63  59  88 SW7       29.91R FOG
KNOXVILLE *    CLOUDY    64  59  82 SW12      29.90S
MARSHALLTOWN   PTSUNNY   63  61  93 S6        29.89S FOG
PELLA *        CLOUDY    64  61  88 SW9       29.92S FOG
PERRY *          N/A     73  57  56 W7        29.89R
$$

IAZ004>006-015-016-023>025-035-036-242300-
   NORTH CENTRAL IOWA

CITY           SKY/WX    TMP DP  RH WIND       PRES   REMARKS
ALGONA *       SUNNY     70  55  60 W9        29.89R
CLARION *      SUNNY     70  59  68 W8        29.88R
ESTHERVILLE    SUNNY     75  44  33 W8        29.87R
FORT DODGE *   MOSUNNY   72  55  56 W8        29.89R
MASON CITY     PTSUNNY   68  57  68 W10       29.89R
FOREST CITY *  SUNNY     68  55  64 W5        29.88R
IOWA FALLS *   PTSUNNY   64  61  88 S6        29.90S FOG
$$

IAZ007>011-017>019-026>030-037>042-050>054-066-242300-
   NORTHEAST IOWA

CITY           SKY/WX    TMP DP  RH WIND       PRES   REMARKS
CEDAR RAPIDS   LGT RAIN  64  59  83 SW12      29.90R
CHARLES CITY * CLOUDY    59  59 100 S5        29.89S FOG
CLINTON *      PTSUNNY   66  52  59 S12       29.93F
DECORAH *      CLOUDY    59  55  88 S7        29.89S
DUBUQUE        CLOUDY    64  54  69 S10       29.90S
MONTICELLO *   CLOUDY    64  55  72 SW12G17   29.91R
OELWEIN *      CLOUDY    59  59 100 S7        29.91R FOG
WATERLOO       CLOUDY    60  59  96 SW5       29.89S FOG
$$

IAZ064-065-067-068-078-242300-
   EAST CENTRAL IOWA

CITY           SKY/WX    TMP DP  RH WIND       PRES   REMARKS
DAVENPORT      CLOUDY    67  51  56 S16       29.92F
IOWA CITY      CLOUDY    64  58  80 S8        29.91F
MT. PLEASANT * CLOUDY    59  57  94 S10G17    29.93F FOG
MUSCATINE *    MOSUNNY   68  57  68 S16       29.91F
QUAD CITIES    CLOUDY    68  52  56 S10       29.92F
$$

IAZ062-063-075>077-085>089-095>099-242300-
   SOUTHEAST IOWA

CITY           SKY/WX    TMP DP  RH WIND       PRES   REMARKS
BURLINGTON     MOSUNNY   66  58  75 S12       29.93F
FAIRFIELD *    CLOUDY    63  57  82 S8G14     29.92S
FORT MADISON * SUNNY     64  61  88 S5        29.95F
KEOKUK *       SUNNY     66  59  77 S9        29.93F
OSKALOOSA *    CLOUDY    64  59  82 S10       29.91F
CENTERVILLE *  SUNNY     68  64  88 SW7       29.94R
OTTUMWA        CLOUDY    65  59  81 S8        29.91S
WASHINGTON *   CLOUDY    63  63 100 S14       29.92S
$$

ABBREVIATIONS USED IN REMARKS
   TC - TEMPERATURES IN CELSIUS
  WCI - WIND CHILL INDEX
   HX - HEAT INDEX
  VSB - VISIBILITY
$$




USA.gov is the U.S. government's official web portal to all federal, state and local government web resources and services.